CW6344 Weather Reports


time (UTC)temp
C
wind
direction
speed
KPH
gust
KPH
rain 1hr
cm
rain 24hr
cm
rain mn
cm
humidity
%
barometer
mb
20260507074456 15 360 0.0 0.0 0.00 0.36 0.10 90 1010.4
20260507073456 15 344 0.0 3.2 0.00 0.36 0.10 90 1010.3
20260507072456 15 350 1.6 3.2 0.00 0.36 0.10 90 1009.9
20260507071456 15 48 0.0 4.8 0.00 0.36 0.10 90 1009.6
20260507070526 16 42 0.0 1.6 0.00 0.36 0.10 91 1009.4
20260507065456 16 22 0.0 3.2 0.00 0.36 0.10 91 1009.0
20260507064525 17 128 0.0 0.0 0.00 0.36 0.10 91 1008.9
20260507063456 17 128 0.0 0.0 0.00 0.36 0.10 91 1008.5
20260507062456 17 127 0.0 0.0 0.08 0.36 0.10 91 1008.6
20260507060456 17 49 0.0 0.0 0.10 0.36 0.10 90 1009.1
20260507055456 17 41 0.0 0.0 0.10 0.36 0.10 90 1009.1
20260507054456 18 255 0.0 0.0 0.10 0.36 0.10 90 1009.2
20260507053456 18 73 1.6 3.2 0.10 0.36 0.10 89 1009.3
20260507052456 18 244 0.0 0.0 0.03 0.28 0.03 88 1009.4
20260507051456 18 244 0.0 0.0 0.00 0.25 0.00 87 1009.4
20260507050456 18 244 0.0 0.0 0.00 0.25 0.00 87 1009.3
20260507045456 18 244 0.0 0.0 0.00 0.25 0.00 87 1009.3
20260507044456 18 244 0.0 0.0 0.00 0.25 0.00 87 1009.3
20260507043456 18 244 0.0 0.0 0.00 0.25 0.00 86 1009.2
20260507042456 18 244 0.0 0.0 0.00 0.25 0.00 86 1009.2
20260507041456 18 244 0.0 0.0 0.00 0.25 0.00 85 1009.2
20260507040456 18 244 0.0 0.0 0.00 0.25 0.25 85 1009.2
20260507035456 18 244 0.0 0.0 0.00 0.25 0.25 85 1009.4
20260507034556 18 244 0.0 0.0 0.00 0.25 0.25 86 1009.5
20260507033456 18 244 0.0 0.0 0.00 0.25 0.25 86 1009.4
20260507032456 18 244 0.0 0.0 0.00 0.25 0.25 86 1009.0
20260507031456 18 244 0.0 0.0 0.00 0.25 0.25 85 1008.7
20260507030456 18 242 0.0 0.0 0.00 0.25 0.25 85 1008.6
20260507025456 18 242 0.0 0.0 0.00 0.25 0.25 84 1008.5
20260507024456 18 242 0.0 0.0 0.00 0.25 0.25 84 1008.6
20260507023456 18 242 0.0 1.6 0.00 0.25 0.25 84 1008.8
20260507022456 18 241 0.0 3.2 0.00 0.25 0.25 85 1009.1
20260507021456 18 232 0.0 1.6 0.00 0.25 0.25 85 1009.3
20260507020456 18 227 0.0 0.0 0.00 0.25 0.25 85 1009.3
20260507014526 18 227 0.0 0.0 0.00 0.25 0.25 84 1009.1
20260507012456 19 232 0.0 0.0 0.00 0.25 0.25 83 1009.0
20260507011456 19 277 3.2 3.2 0.00 0.25 0.25 83 1009.0
20260507010456 19 277 0.0 1.6 0.00 0.25 0.25 83 1009.2
20260507005456 19 220 0.0 3.2 0.00 0.25 0.25 82 1009.1
20260507004456 20 221 0.0 0.0 0.00 0.25 0.25 82 1008.9
20260507003456 20 213 3.2 3.2 0.00 0.25 0.25 82 1008.9
20260507002456 20 202 0.0 3.2 0.00 0.25 0.25 82 1009.1
20260507001456 20 9 0.0 1.6 0.00 0.25 0.25 81 1008.8
20260507000456 20 259 0.0 1.6 0.00 0.25 0.25 81 1008.6
20260506235456 20 215 0.0 1.6 0.00 0.25 0.25 80 1008.6
20260506234526 21 258 0.0 0.0 0.00 0.25 0.25 80 1008.5
20260506233456 21 222 0.0 1.6 0.00 0.25 0.25 79 1008.6
20260506232456 21 225 1.6 4.8 0.00 0.25 0.25 79 1008.5
20260506231456 21 244 0.0 4.8 0.00 0.25 0.25 79 1008.4
20260506230456 21 298 1.6 4.8 0.00 0.25 0.25 78 1008.4
20260506224456 21 189 1.6 4.8 0.00 0.25 0.25 78 1008.4
20260506223456 21 200 0.0 4.8 0.00 0.25 0.25 78 1008.4
20260506222456 21 261 0.0 4.8 0.00 0.25 0.25 78 1008.5
20260506221456 21 15 0.0 4.8 0.00 0.25 0.25 77 1008.5
20260506220526 21 232 1.6 4.8 0.00 0.25 0.25 77 1008.6
20260506215456 21 253 1.6 4.8 0.00 0.25 0.25 78 1008.6
20260506214456 21 155 3.2 4.8 0.00 0.25 0.25 78 1008.7
20260506213456 21 299 1.6 3.2 0.00 0.25 0.25 78 1008.7
20260506212456 21 205 3.2 6.4 0.00 0.25 0.25 77 1008.7
20260506211456 21 213 3.2 6.4 0.00 0.25 0.25 77 1008.8
20260506210456 21 271 3.2 4.8 0.00 0.25 0.25 78 1008.7
20260506205456 21 308 0.0 3.2 0.00 0.25 0.25 79 1008.6
20260506204456 20 198 1.6 4.8 0.00 0.25 0.25 79 1008.7
20260506203456 20 230 4.8 4.8 0.00 0.25 0.25 80 1008.6
20260506202456 20 235 1.6 4.8 0.00 0.25 0.25 80 1008.5
20260506201456 20 217 0.0 8.0 0.00 0.25 0.25 79 1008.7
20260506200456 20 238 1.6 4.8 0.00 0.25 0.25 80 1008.7
20260506195456 20 169 0.0 3.2 0.00 0.25 0.25 81 1008.7
20260506194456 20 219 4.8 4.8 0.00 0.25 0.25 81 1009.3
20260506193456 20 214 0.0 4.8 0.00 0.25 0.25 80 1009.3
20260506192526 20 265 4.8 11.3 0.00 0.25 0.25 80 1009.0
20260506191456 20 182 3.2 4.8 0.00 0.25 0.25 81 1009.1
20260506190456 20 186 1.6 4.8 0.00 0.25 0.25 80 1009.5
20260506184456 20 279 6.4 6.4 0.00 0.25 0.25 81 1009.6
20260506183456 20 217 0.0 8.0 0.00 0.25 0.25 80 1009.9
20260506182456 20 219 1.6 4.8 0.00 0.25 0.25 81 1009.7
20260506181456 20 5 1.6 4.8 0.00 0.25 0.25 82 1009.7
20260506180456 20 228 0.0 4.8 0.00 0.25 0.25 82 1010.0
20260506175456 19 293 1.6 3.2 0.00 0.25 0.25 83 1010.1
20260506174456 18 170 0.0 4.8 0.00 0.25 0.25 84 1010.2
20260506173456 18 288 3.2 4.8 0.00 0.25 0.25 85 1010.2
20260506172456 18 200 3.2 3.2 0.03 0.25 0.25 86 1010.2
20260506170456 18 13 1.6 3.2 0.05 0.25 0.25 87 1010.1
20260506165456 17 101 0.0 4.8 0.10 0.25 0.25 88 1010.4
20260506164456 17 201 0.0 6.4 0.18 0.25 0.25 88 1010.4
20260506163456 17 59 3.2 4.8 0.18 0.25 0.25 89 1010.3
20260506162456 17 230 1.6 4.8 0.20 0.23 0.25 88 1010.5
20260506161456 17 224 3.2 8.0 0.18 0.23 0.23 88 1010.6
20260506160456 17 360 3.2 4.8 0.18 0.20 0.20 87 1010.7
20260506155456 17 200 4.8 4.8 0.13 0.15 0.15 85 1010.9
20260506154456 18 168 0.0 6.4 0.05 0.08 0.08 85 1011.2
20260506152456 18 170 0.0 4.8 0.05 0.05 0.05 82 1011.4
20260506151457 18 207 0.0 4.8 0.05 0.05 0.05 81 1011.3
20260506150456 18 355 0.0 9.7 0.03 0.03 0.03 80 1011.5
20260506145457 18 322 1.6 3.2 0.03 0.03 0.03 81 1011.3
20260506144456 18 230 0.0 3.2 0.03 0.03 0.03 81 1011.4
20260506143456 18 295 0.0 3.2 0.03 0.03 0.03 80 1011.3
20260506142456 18 219 0.0 4.8 0.00 0.00 0.00 78 1011.1
20260506141456 19 267 0.0 3.2 0.00 0.00 0.00 76 1011.2
20260506140526 20 206 0.0 3.2 0.00 0.00 0.00 72 1011.1
20260506135457 20 166 1.6 4.8 0.00 0.00 0.00 70 1011.3
20260506134456 20 199 6.4 6.4 0.00 0.00 0.00 70 1011.4
20260506133456 20 165 1.6 11.3 0.00 0.00 0.00 70 1011.4
20260506132456 20 170 0.0 1.6 0.00 0.00 0.00 71 1011.2
20260506131456 20 194 8.0 8.0 0.00 0.00 0.00 69 1011.1
20260506130526 20 144 3.2 4.8 0.00 0.00 0.00 70 1011.1
20260506124456 20 232 4.8 4.8 0.00 0.00 0.00 72 1011.2
20260506123456 19 213 1.6 6.4 0.00 0.00 0.00 71 1010.9
20260506122457 19 134 6.4 9.7 0.00 0.00 0.00 72 1011.2
20260506121457 19 196 1.6 3.2 0.00 0.00 0.00 72 1011.3
20260506120456 18 292 4.8 4.8 0.00 0.00 0.00 71 1011.4
20260506115457 18 207 3.2 9.7 0.00 0.00 0.00 71 1011.4
20260506114457 18 155 0.0 4.8 0.00 0.00 0.00 71 1011.5
20260506113456 18 279 6.4 6.4 0.00 0.00 0.00 71 1011.3
20260506112457 18 196 0.0 4.8 0.00 0.00 0.00 71 1011.2
20260506111456 18 206 3.2 9.7 0.00 0.00 0.00 72 1011.1
20260506110456 18 264 4.8 4.8 0.00 0.00 0.00 73 1011.2
20260506105457 18 221 0.0 4.8 0.00 0.00 0.00 72 1011.0
20260506104456 18 243 1.6 11.3 0.00 0.00 0.00 72 1011.1
20260506103457 18 237 0.0 3.2 0.00 0.00 0.00 72 1010.9
20260506102657 18 223 3.2 3.2 0.00 0.00 0.00 73 1010.9
20260506101456 18 222 0.0 4.8 0.00 0.00 0.00 73 1010.9
20260506100456 18 279 0.0 3.2 0.00 0.00 0.00 73 1010.9
20260506095457 18 320 0.0 3.2 0.00 0.00 0.00 73 1010.9
20260506094457 18 215 1.6 3.2 0.00 0.00 0.00 73 1010.9
20260506093456 18 236 0.0 3.2 0.00 0.00 0.00 74 1010.9
20260506092457 18 77 1.6 9.7 0.00 0.00 0.00 74 1010.9
20260506091457 18 306 1.6 9.7 0.00 0.00 0.00 74 1011.0
20260506090457 18 214 3.2 4.8 0.00 0.00 0.00 74 1010.8
20260506085457 18 305 4.8 6.4 0.00 0.00 0.00 74 1011.0
20260506084457 18 163 1.6 6.4 0.00 0.00 0.00 74 1011.1
20260506083457 18 243 3.2 4.8 0.00 0.00 0.00 74 1011.0
20260506082457 18 302 4.8 9.7 0.00 0.00 0.00 74 1010.9
20260506081457 18 186 3.2 11.3 0.00 0.00 0.00 74 1011.0
20260506080457 18 207 0.0 9.7 0.00 0.00 0.00 74 1011.1